Regional Weather Roundup
Issued by NWS

Home | Current Version | Previous Version | Graphics & Text | Print | Product List | Glossary On
Versions: 1 2 3 4 5 6 7 8 9 10 11 12 13 14 15 16 17 18 19 20 21 22 23 24 25 26 27 28 29 30 31 32 33 34 35 36 37 38 39 40 41 42 43 44 45 46 47 48 49 50
000
ASUS43 KOAX 251902
RWRNE

WEATHER ROUNDUP FOR NEBRASKA
NATIONAL WEATHER SERVICE OMAHA NE
200 PM CDT WED APR 25 2018

NOTES: SATELLITE DATA IS BEING USED TO AUGMENT CLOUD COVER ABOVE
       12000 FEET.
       "FAIR" INDICATES FEW OR NO CLOUDS BELOW 12,000 FEET WITH NO
       SIGNIFICANT WEATHER AND/OR OBSTRUCTIONS TO VISIBILITY.


NEZ001>004-019>022-054>056-252000-
NEBRASKA PANHANDLE

CITY           SKY/WX    TMP DP  RH WIND       PRES   REMARKS
SCOTTSBLUFF    SUNNY     58  30  34 S6        30.17F
ALLIANCE       SUNNY     56  27  32 SW14G20   30.16F
CHADRON        SUNNY    N/A N/A N/A MISG      30.12F
GORDON         FAIR      58  32  36 SW13G21   30.14F
KIMBALL        SUNNY     57  26  29 W9        30.20F
SIDNEY         SUNNY     59  29  31 W9        30.20F
$$

NEZ057>060-069>072-079>082-252000-
SOUTHWEST NEBRASKA

CITY           SKY/WX    TMP DP  RH WIND       PRES   REMARKS
NORTH PLATTE   SUNNY     59  29  31 NW12      30.20F
IMPERIAL       SUNNY     55  28  35 W7G18     30.22F
LEXINGTON      SUNNY     55  33  44 N10       30.20F
MCCOOK         SUNNY     57  34  41 NW10G20   30.21F
OGALLALA       SUNNY     56  30  36 W8        30.20F
$$

NEZ005>010-023>029-035>040-094-252000-
NORTH CENTRAL NEBRASKA

CITY           SKY/WX    TMP DP  RH WIND       PRES   REMARKS
VALENTINE      SUNNY     59  25  27 S9        30.15F
AINSWORTH      SUNNY     56  28  34 SW8       30.17F
BROKEN BOW     SUNNY     55  33  43 VRB5      30.19F
O`NEILL        SUNNY     57  28  32 CALM      30.18F
ORD            SUNNY     55  30  38 MISG      30.18F
THEDFORD       SUNNY     57  25  29 W6        30.19F
$$

NEZ041-046>049-061>064-073>077-083>087-252000-
SOUTH CENTRAL NEBRASKA

CITY           SKY/WX    TMP DP  RH WIND       PRES   REMARKS
GRAND ISLAND   SUNNY     54  33  45 VRB6      30.21F
AURORA         CLOUDY    49  35  58 CALM      30.21F
HASTINGS       CLOUDY    50  31  48 NE9       30.22F
HEBRON         CLOUDY    51  40  68 N6        30.20F
HOLDREGE       MOSUNNY   52  36  53 N12G17    30.21F
KEARNEY        PTSUNNY   52  33  48 VRB6      30.21F
YORK             N/A     48  39  71 N5        30.21F
$$

NEZ011>018-030>034-042>045-252000-
NORTHEAST NEBRASKA

CITY           SKY/WX    TMP DP  RH WIND       PRES   REMARKS
NORFOLK        SUNNY     56  32  40 VRB5      30.18F
ALBION         SUNNY     54  32  42 CALM      30.19F
BLAIR          MOSUNNY   55  35  46 N3        30.17F
COLUMBUS       MOSUNNY   54  37  52 VRB6      30.19F
FREMONT        MOSUNNY   57  35  42 N5        30.19F
TEKAMAH        SUNNY     58  33  39 N6        30.17F
WAYNE          SUNNY     55  31  39 CALM      30.18F
$$

NEZ050>053-065>068-078-088>093-252000-
SOUTHEAST NEBRASKA

CITY           SKY/WX    TMP DP  RH WIND       PRES   REMARKS
LINCOLN        PTSUNNY   53  38  56 NW8       30.20F
OMAHA EPPLEY   PTSUNNY   55  39  54 VRB3      30.18F
BEATRICE       CLOUDY    50  41  71 NE8       30.19F
FALLS CITY     CLOUDY    51  41  68 N9        30.16F
NEBRASKA CITY  CLOUDY    49  44  85 N12       30.17F
PLATTSMOUTH    PTSUNNY   49  41  73 W5        30.18F
$$

NEZ044-045-051>053-067-252000-
OMAHA AREA

CITY           SKY/WX    TMP DP  RH WIND       PRES   REMARKS
OMAHA EPPLEY   PTSUNNY   55  39  54 VRB3      30.18F
BLAIR          MOSUNNY   55  35  46 N3        30.17F
FREMONT        MOSUNNY   57  35  42 N5        30.19F
MILLARD        PTSUNNY   54  38  54 N5        30.18F
PLATTSMOUTH    PTSUNNY   49  41  73 W5        30.18F
WAHOO          MOCLDY    51  39  62 W3        30.20F
$$




USA.gov is the U.S. government's official web portal to all federal, state and local government web resources and services.